This is the latest recevied weather packets stored in our database for station/object HB9FHL-13. If no packets are shown the sender has not sent any weather packets the latest 10 day(s).
| Time | Temp. | Humidity | Pressure | Rain* | Wind** | Luminosity | Snow |
|---|---|---|---|---|---|---|---|
| 1777719015 | 17.78° C | - | 1022.2 hPa | 0 mm | - | - | - |
| 1777718714 | 18.33° C | - | 1027 hPa | 0 mm | - | - | - |
| 1777718413 | 18.89° C | - | 1021.5 hPa | 0 mm | - | - | - |
| 1777718113 | 18.89° C | - | 1025.2 hPa | 0 mm | - | - | - |
| 1777717812 | 18.33° C | - | 1024.9 hPa | 0 mm | - | - | - |
| 1777717514 | 17.78° C | - | 1023.2 hPa | 0 mm | - | - | - |
| 1777717211 | 18.33° C | - | 1026.6 hPa | 0 mm | - | - | - |
| 1777716910 | 17.78° C | - | 1024 hPa | 0 mm | - | - | - |
| 1777716610 | 18.89° C | - | 1024 hPa | 0 mm | - | - | - |
| 1777716311 | 18.33° C | - | 1025.3 hPa | 0 mm | - | - | - |
| 1777716009 | 17.78° C | - | 1023.8 hPa | 0 mm | - | - | - |
| 1777715708 | 18.33° C | - | 1022.8 hPa | 0 mm | - | - | - |
| 1777715107 | 18.89° C | - | 1027.4 hPa | 0 mm | - | - | - |
| 1777714808 | 17.78° C | - | 1025.5 hPa | 0 mm | - | - | - |
| 1777714506 | 18.33° C | - | 1021.5 hPa | 0 mm | - | - | - |
| 1777714206 | 18.33° C | - | 1028 hPa | 0 mm | - | - | - |
| 1777713905 | 18.33° C | - | 1026.4 hPa | 0 mm | - | - | - |
| 1777713605 | 17.22° C | - | 1023.2 hPa | 0 mm | - | - | - |
| 1777713303 | 18.33° C | - | 1023.6 hPa | 0 mm | - | - | - |
| 1777713002 | 18.33° C | - | 1024.5 hPa | 0 mm | - | - | - |
| 1777712702 | 17.78° C | - | 1028.1 hPa | 0 mm | - | - | - |
| 1777712401 | 18.33° C | - | 1023.7 hPa | 0 mm | - | - | - |
| 1777712101 | 18.33° C | - | 1027.3 hPa | 0 mm | - | - | - |
| 1777711800 | 17.78° C | - | 1029 hPa | 0 mm | - | - | - |
| 1777711500 | 17.78° C | - | 1028.5 hPa | 0 mm | - | - | - |
* Rain since midnight (hover to see other rain measurements)
** Current wind speed in m/s (hover to see current wind gust speed)